Regional Weather Roundup
Issued by NWS

Home | Current Version | Previous Version | Text Only | Print | Product List | Glossary Off
Versions: 1 2 3 4 5 6 7 8 9 10 11 12 13 14 15 16 17 18 19 20 21 22 23 24 25 26 27 28

000
ASUS45 KBOI 232210
RWRID

IDAHO REGIONAL WEATHER ROUNDUP
NATIONAL WEATHER SERVICE BOISE ID
400 PM MDT FRI SEP 23 2016

NOTE: "FAIR" INDICATES FEW OR NO CLOUDS BELOW 12000 FEET
WITH NO SIGNIFICANT WEATHER AND/OR OBSTRUCTIONS TO VISIBILITY

IDZ012-014-232300-
SOUTHWEST IDAHO


CITY           SKY/WX    TMP DP  RH WIND       PRES   REMARKS
BOISE          MOSUNNY   69  39  33 NW21G31   29.95F
CALDWELL       MOSUNNY   68  37  32 W17G24    29.98S
MOUNTAIN HOME  SUNNY     67  39  35 NW30G37   29.94S
$$

IDZ016-017-232300-
SOUTHCENTRAL IDAHO


CITY           SKY/WX    TMP DP  RH WIND       PRES   REMARKS
BURLEY         LGT RAIN  50  47  89 W14G24    29.92S
JEROME         LGT RAIN  53  50  89 SW12      29.93S
TWIN FALLS     LGT RAIN  52  46  80 W13       29.95S
$$

IDZ019>023-232300-
SOUTHEAST IDAHO


CITY           SKY/WX    TMP DP  RH WIND       PRES   REMARKS
IDAHO FALLS    CLOUDY    51  44  77 SW12      29.92S
POCATELLO      CLOUDY    51  45  79 SW18      29.94F
REXBURG        RAIN      50  47  89 SW7       29.91R
$$

IDZ006-010-011-018-031-032-232300-
CENTRAL IDAHO MOUNTAINS


CITY           SKY/WX    TMP DP  RH WIND       PRES   REMARKS
MCCALL         MOSUNNY   57  33  40 N14       30.02F
HAILEY         CLOUDY    54  50  87 SE12      29.94R
STANLEY          N/A     56  35  45 N10G20    30.01F
SALMON         CLOUDY    57  43  58 NE8       29.95S
CHALLIS        CLOUDY    54  40  59 NW9       29.98R
$$

IDZ002-004-006-007-026-232300-
NORTHERN IDAHO


CITY           SKY/WX    TMP DP  RH WIND       PRES   REMARKS
LEWISTON       CLOUDY    69  35  28 NW15      29.98F
LOWELL           N/A     67  50  54 CALM      29.99F
COEUR D`ALENE  NOT AVBL
MULLAN PASS    CLOUDY    43  40  89 W6        30.04S
$$




USA.gov is the U.S. government's official web portal to all federal, state and local government web resources and services.